STARLINK-34890

Last updated on Mon Oct 20 2025 00:02:06 GMT+0000 (Coordinated Universal Time)

1 65760U 25216AC 25292.23214469 .00139685 00000+0 24705-2 0 9992 2 65760 53.1588 272.2255 0001925 90.6802 269.4428 15.49359779 4843
UTC large
Height (km)
Speed (km/s)
/
Latitude / Longitude
Inclination (degrees)
Orbital Period (minutes)
Azimuth
Elevation
Range (km)
Doppler Factor

Next 0 passes for location: London (51.5072 / 0.1276)

Sorry there are no passes over London.